Flag for Martinique Weather past 2 weeks in Fort-de-France, Martinique

86 °F

Partly sunny.

Feels Like: 93 °F
Forecast: N/A
Wind: 17 mph from East

Location: Le Lamentin Airport

Current Time: Oct 9, 2015 at 4:57:22 PM

Latest Report: Oct 9, 2015 at 4:30 PM

Visibility: N/A

Pressure: 29.89 "Hg

Humidity: 66%

Dew point: 73 °F

Location of Fort-de-FranceLocation

Historic Weather in Fort-de-France — Graph


Fort-de-France temperature yesterday

Maximum temperature yesterday: 84 °F (at 2:00 PM)
Minimum temperature yesterday: 75 °F (at 3:00 AM)
Average temperature yesterday: 79 °F

Past Weeks' High & Low Weather Summary

High95 °F (Oct 1, 1:30 PM)100% (Sep 27, 5:00 AM)30.01 "Hg (Sep 27, 5:00 AM)
Low73 °F (Sep 25, 4:30 AM)47% (Sep 25, 11:00 AM)29.77 "Hg (Sep 30, 3:00 PM)
Average83 °F77%29.90 "Hg
* Reported Sep 24 4:00 PM — Oct 9 4:00 PM, Fort-de-France, Weather by CustomWeather, © 2015

Note: Actual official high and low records may vary slightly from our data, if they occured in-between our weather recording intervals... More about our weather records


Fort-de-France weather history for previous 24 hours

Time TempWeatherWind HumidityBarometerVisibility
4:00 PM
Fri, Oct 9
88 °FPartly sunny.18 mph66%29.89 "HgN/A
3:30 PM88 °FPartly sunny.18 mph66%29.89 "HgN/A
3:00 PM88 °FPartly sunny.17 mph66%29.89 "HgN/A
2:30 PM88 °FBroken clouds.20 mph66%29.89 "HgN/A
2:00 PM88 °FPartly sunny.17 mph66%29.89 "HgN/A
1:30 PM88 °FBroken clouds.20 mph66%29.92 "HgN/A
1:00 PM88 °FBroken clouds.22 mph66%29.92 "HgN/A
12:30 PM88 °FBroken clouds.22 mph66%29.95 "HgN/A
12:00 PM88 °FPartly sunny.21 mph66%29.95 "HgN/A
11:30 AM88 °FBroken clouds.20 mph66%29.98 "HgN/A
10:30 AM88 °FBroken clouds.15 mph66%30.01 "HgN/A
10:00 AM88 °FPartly sunny.17 mph62%30.01 "HgN/A
9:30 AM88 °FPartly sunny.16 mph66%30.01 "HgN/A
9:00 AM88 °FPartly sunny.17 mph66%30.01 "HgN/A
8:30 AM86 °FBroken clouds.15 mph70%29.98 "HgN/A
8:00 AM82 °FPartly sunny.9 mph79%29.98 "HgN/A
7:30 AM82 °FPartly sunny.15 mph74%29.98 "HgN/A
7:00 AM82 °FBroken clouds.3 mph84%29.98 "HgN/A
6:30 AM81 °FScattered clouds.7 mph84%29.95 "HgN/A
6:00 AM81 °FScattered clouds.7 mph79%29.95 "HgN/A
5:30 AM81 °FPartly cloudy.6 mph84%29.92 "HgN/A
5:00 AM81 °FPassing clouds.8 mph79%29.92 "HgN/A
4:30 AM81 °FClear.12 mph79%29.92 "HgN/A
4:00 AM82 °FPassing clouds.10 mph79%29.92 "HgN/A
3:30 AM82 °FPartly cloudy.9 mph84%29.92 "HgN/A
3:00 AM82 °FPassing clouds.10 mph79%29.92 "HgN/A
2:30 AM82 °FPassing clouds.9 mph84%29.92 "HgN/A
2:00 AM81 °FPassing clouds.3 mph89%29.92 "HgN/A
1:30 AM82 °FPartly cloudy.6 mph84%29.95 "Hg5 mi
1:00 AM81 °FPartly cloudy.7 mph89%29.95 "HgN/A
12:30 AM82 °FClear.7 mph79%29.95 "HgN/A
12:00 AM82 °FPassing clouds.6 mph84%29.95 "HgN/A
11:30 PM
Thu, Oct 8
82 °FPassing clouds.6 mph84%29.98 "HgN/A
11:00 PM81 °FPartly cloudy.3 mph89%29.98 "HgN/A
10:30 PM79 °FPassing clouds.No wind94%29.98 "HgN/A
10:00 PM79 °FPassing clouds.No wind89%29.98 "HgN/A
9:30 PM79 °FPassing clouds.2 mph94%29.98 "HgN/A
9:00 PM79 °FOvercast.3 mph89%29.98 "HgN/A
8:30 PM79 °FPassing clouds.3 mph89%29.95 "HgN/A
8:00 PM79 °FPassing clouds.5 mph89%29.95 "HgN/A
7:30 PM79 °FPartly cloudy.3 mph89%29.92 "HgN/A
7:00 PM79 °FOvercast.2 mph89%29.92 "HgN/A
6:30 PM81 °FMostly cloudy.2 mph84%29.89 "HgN/A
6:00 PM81 °FMostly cloudy.No wind84%29.89 "HgN/A
5:30 PM82 °FPartly sunny.2 mph74%29.89 "HgN/A
5:00 PM82 °FMostly cloudy.2 mph74%29.89 "HgN/A
4:30 PM82 °FMostly cloudy.3 mph74%29.89 "HgN/A
4:00 PM82 °FBroken clouds.3 mph79%29.89 "HgN/A
Weather by CustomWeather, © 2015

See weather overviewHow to use our weather pages